www.pogodaiklimat.ru

Погода и климат >> Архив погоды >> Россия >> Оренбургская область >> Беляевка


ПОГОДА в Беляевке

  • Прогноз погоды в Беляевке
  • Монитор погоды в Беляевке
  • Климат города

АРХИВ ПОГОДЫ в Беляевке

Время (UTC), дата Ветер
(напр.,м/с)
 
Видим.   Явления Облачность Т
(С)
Тd
(С)
f
(%)
Тe
(С)
Тes
(С)
Комфортность P
(гПа)
Po
(гПа)
Тmin
(С)
Tmax
(С)
R
(мм)
R24
(мм)
S
(см)
09 18.04 Ю 3 4000 м слабый дождь 10/0 600 м
[As op]
+14.3 +7.1 62 +13 +16 1021.2 1005.2
12 18.04 ЮЗ 4 20 км {дождь} 9/8 600 м
[Cb cap Ci fib]
+20.4 +5.2 37 +21 +22 комфорт 1019.0 1003.4
15 18.04 Ю 3
{13}
20 км {ливн. осадки} 9/9 630 м
[Cb cap]
+16.5 +7.9 57 +16 +16 1019.2 1003.4 +21.3 0.0
18 18.04 Ю 3 10 км {ливн. осадки} 10/0 660 м
[As op]
+12.0 +7.6 74 +10 +10 1020.0 1003.9
21 18.04 ЮВ 3 10 км ясно +10.7 +5.9 72 +9 +9 1019.9 1003.5
00 19.04 Ю 4 10 км ясно +8.6 +3.5 70 +6 +6 1019.8 1003.5
03 19.04 ЮВ 3 20 км ясно +8.4 +3.0 69 +6 +8 1019.9 1003.6 +4.4
06 19.04 Ю 5 20 км 9/0
[Ci fib]
+18.6 +1.1 31 +18 +23 1018.8 1003.0
09 19.04 Ю 5
{11}
20 км 6/0
[Ci fib]
+21.6 -3.1 19 +21 +27 комфорт 1017.7 1002.1
12 19.04 Ю 5 20 км ясно +22.3 -1.7 20 +21 +24 комфорт 1016.2 1000.7
15 19.04 ЮВ 2 20 км ясно +17.9 +1.8 34 +18 +19 1015.5 999.8 +22.5
18 19.04 В 3 10 км ясно +9.6 +3.1 64 +8 +8 1016.4 1000.2
21 19.04 В 3 10 км ясно +6.8 +2.1 72 +4 +4 1015.8 999.5
00 20.04 В 1 10 км ясно +5.3 +1.0 74 +4 +4 1014.6 998.2
03 20.04 20 км 9/0
[Ci fib]
+9.0 +2.9 66 1013.8 997.6 +4.9
06 20.04 ЮВ 7-12
{12}
20 км 9/0
[Ci fib]
+21.4 +1.4 27 +21 +24 комфорт 1011.4 995.9
09 20.04 Ю 9-15
{15}
20 км 9/0
[Ci fib]
+24.5 -2.6 16 +23 +24 комфорт 1008.9 993.6
12 20.04 Ю 8-13
{18}
20 км 9/6 660 м
[Cb cap Ci fib]
+23.3 -2.0 18 +22 +22 комфорт 1008.4 993.0
15 20.04 З 4
{13}
20 км 10/8 600 м
[Frnb As op]
+15.0 +8.0 63 +14 +14 1011.0 995.9 +24.8
18 20.04 З 4 10 км 9/0
[Ci fib]
+8.7 +5.3 79 +6 +6 1013.2 997.0
21 20.04 З 6
{11}
10 км 10/0
[As op]
+5.3 +2.1 80 0 0 1014.8 998.4
00 21.04 СЗ 4 10 км 9/0
[Ci fib]
+0.6 -3.9 72 -4 -4 1015.9 999.2
03 21.04 СЗ 4 20 км ясно +0.7 -3.1 76 -4 -3 1016.5 999.7 -0.6
06 21.04 СЗ 5 20 км ясно +4.5 -4.7 51 0 +6 1016.7 1000.2
09 21.04 СЗ 6
{12}
20 км 5/0
[Ci fib]
+7.6 -5.5 39 +4 +9 1016.0 999.6
12 21.04 СЗ 6-11
{12}
20 км ясно +8.0 -6.1 36 +5 +7 1016.3 1000.0
15 21.04 СЗ 5
{11}
20 км 8/0
[Ci fib]
+5.7 -5.0 46 +2 +2 1017.1 1000.6 +8.2
18 21.04 СЗ 1 10 км ясно +1.0 -4.7 66 -0 -0 1019.0 1002.2
21 21.04 Ю 1 10 км ясно -4.0 -5.1 92 -6 -6 1019.7 1002.6
00 22.04 В 2 10 км ясно -6.3 -6.6 98 -11 -11 1020.2 1002.9
03 22.04 ЮВ 2 20 км 9/9 660 м
[Cb cap]
-1.7 -3.2 89 -6 -5 1020.5 1003.6 -6.5
06 22.04 ЮВ 6
{10}
20 км 9/9 660 м
[Sc]
+5.6 -6.0 43 +1 +2 1018.3 1001.8
09 22.04 ЮВ 7-10
{11}
20 км 10/8 600 м
[Frnb As op]
+8.5 -5.5 37 +5 +5 1013.9 997.7
12 22.04 В 6-10
{13}
20 км 10/8 600 м
[Frnb As op]
+10.9 -3.0 38 +8 +8 1008.6 992.6
15 22.04 В 8-13
{17}
20 км 10/8 600 м
[Frnb As op]
+12.9 -1.3 37 +10 +10 1002.6 986.8 +13.5
18 22.04 Ю 4
{14}
10 км слабый дождь 10/0
[As op]
+6.1 +5.4 95 +2 +2 1004.7 988.5
21 22.04 ЮЗ 4
{12}
10 км {дождь} 10/0
[As op]
+5.3 +3.8 90 +1 +1 1005.9 989.7
00 23.04 ЮЗ 5
{10}
10 км 10/0
[As op]
+4.8 +3.4 91 -0 -0 1005.7 989.4
03 23.04 З 9-14
{15}
20 км слабый дождь 10/8 600 м
[Frnb As op]
+4.9 +2.9 87 -1 -1 1006.9 990.6 +4.6 4
06 23.04 З 8-12
{16}
20 км {дождь} 9/9 480 м
[Cb cap]
+5.3 +2.0 79 -0 -0 1011.8 995.4 +4.5
09 23.04 З 7-11
{14}
20 км 9/9 540 м
[Cb cap]
+11.2 +3.6 59 +8 +9 1013.4 997.3
12 23.04 ЮЗ 7-12
{15}
20 км 9/9 600 м
[Cb cap]
+14.0 +4.3 52 +12 +12 1014.2 998.3
15 23.04 ЮЗ 3
{12}
20 км 8/8 700 м
[Sc]
+12.2 +4.6 60 +11 +11 1015.2 999.2 +14.6 0.0
18 23.04 ЮВ 2 10 км 9/9 720 м
[Sc]
+7.1 +4.0 81 +5 +5 1016.4 1000.1
21 23.04 Ю 3 10 км 9/9 720 м
[Sc]
+7.8 +4.8 81 +5 +5 1016.5 1000.2
00 24.04 В 3 10 км 10/0 630 м
[As op]
+7.3 +4.3 81 +4 +4 1015.2 998.9
03 24.04 ЮВ 4 20 км 9/0
[Ac trans]
+9.7 +4.1 68 +7 +8 1014.0 997.8 +5.8
06 24.04 ЮВ 10-16
{16}
10 км 10/0
[As op]
+13.7 +3.7 51 +11 +11 1009.0 993.1
09 24.04 ЮВ 7-12
{16}
10 км {дождь} 10/0
[As op]
+15.9 +3.8 44 +15 +15 1005.5 989.9
12 24.04 Ю 8-14
{15}
10 км {дождь} 10/0
[As op]
+20.4 +5.2 37 +21 +21 комфорт 1003.0 987.6
15 24.04 Ю 4
{14}
10 км {ливн. осадки} 6/6 600 м
[Cb calv]
+14.7 +11.4 81 +13 +13 1003.6 987.9 +21.1 0.4
18 24.04 Ю 3 4000 м дымка {ливн. осадки} ясно +11.9 +10.1 89 +10 +10 1006.3 990.4
21 24.04 ЮЗ 2 10 км ясно +6.5 +4.2 85 +4 +4 1009.7 993.4
00 25.04 ЮЗ 4 4000 м дымка ясно +5.4 +4.0 91 +1 +1 1011.6 995.3
03 25.04 ЮЗ 4 20 км 9/9 600 м
[Cb cap]
+6.3 +5.0 91 +2 +3 1014.7 998.4 +3.2
06 25.04 З 5 20 км 10/0
[As trans]
+8.3 +3.1 70 +5 +7 1016.8 1000.5

 

Местоположение метеостанции Беляевка (Оренбургская область, Россия): широта 51.42 долгота 56.42 высота над уровнем моря 131 м.

В архиве по умолчанию представлена погода в Беляевке за последнюю неделю. Архивные данные за месяц целиком и за предыдущие месяцы, начиная с января 2011 года, Вы можете получить, выбрав интересующий диапазон дат из раскрывающегося списка и нажав кнопку "Ввод!".

Внимание! Время в таблицах - всемирное. Для получения местного времени необходимо прибавить поправку, которая в Беляевке равна 5 ч.

Смотрите также архив погоды в соседних городах и на ближайших метеорологических станциях:

Погода в Кувандыке (Оренбургская область, Россия) (66 км)
Погода в Акбулаке (Оренбургская область, Россия) (71 км)
Погода в Мартуке (Актюбинская область, Казахстан) (75 км)
Погода в Оренбурге (Оренбургская область, Россия) (96 км)
Погода в Троицком Т (Оренбургская область, Россия) (101 км)
Погода в Родниковке (Актюбинская область, Казахстан) (101 км)
Погода в Соль-Илецк (Оренбургская область, Россия) (102 км)
Погода в Зилаире (Башкирия, Россия) (112 км)
Погода в Кос-Истеке (Актюбинская область, Казахстан) (129 км)
Погода в Акъяре (Башкирия, Россия) (131 км)

Пояснения к столбцам:

Ветер - указаны скорость ветра в м/с - средняя за 10 мин, порывы в срок и между сроками (в фигурных скобках) и направление, откуда дует ветер: С - северный, СВ - северо-восточный, В - восточный, ЮВ - юго-восточный, Ю - южный, ЮЗ - юго-западный, З - западный, СЗ - северо-западный.
Видимость - горизонтальная дальность видимости в метрах или километрах. При видимости от 1 до 10 км при отсутствии осадков обычно наблюдается дымка, при ухудшении видимости до 1 км и менее - туман. В сухую погоду видимость может ухудшаться дымом, пылью или мглою.
Явления - указаны атмосферные явления, наблюдавшиеся в срок или в последний час перед сроком; фигурными скобками обозначены явления, наблюдавшиеся между сроками (за 1-3 часа до срока); квадратными скобками обозначены град или гололедные отложения с указанием их диаметра в мм.
Облачность - указаны через наклонную черту общая и нижняя облачность в баллах и высота нижней границы облаков в метрах; квадратными скобками обозначены формы облаков: Ci - перистые, Cs - перисто-слоистые, Cc - перисто-кучевые, Ac - высококучевые, As - высокослоистые, Sc - слоисто-кучевые, Ns - слоисто-дождевые, Cu - кучевые, Cb - кучево-дождевые. Подробнее классификацию облаков см. в Атласе облаков (PDF).
T - Температура воздуха - температура, измеренная на высоте 2 м над землей.
Td - Температура точки росы - температура, при понижении до которой содержащийся в воздухе водяной пар достигнет насыщения.
f - Относительная влажность воздуха - влажноcть воздуха, измеренная на высоте 2 м над землей.
Te - Эффективная температура - температура, которую ощущает одетый по сезону человек в тени. Характеристика душности погоды. При расчете учитывается влияние влажности воздуха и скорости ветра на теплоощущения человека.
Tes - Эффективная температура на солнце - температура, которую ощущает человек, с поправкой на солнечный нагрев. Характеристика знойности погоды. Зависит от высоты солнца над горизонтом, облачности и скорости ветра. Ночью, в пасмурную погоду, а также при ветре 12 м/с и более поправка равна нулю.
P - Атмосферное давление - приведенное к уровню моря атмосферное давление.
Po - Атмосферное давление - измеренное на уровне метеостанции атмосферное давление.
Tmin - Минимальная температура - минимум температуры воздуха на высоте 2 м над землей.
Tmax - Максимальная температура - максимум температуры воздуха на высоте 2 м над землей.
R - Количество осадков - Количество выпавших осадков за период времени, мм. При наведении курсора мыши на число - период времени, за который выпало указанное количество осадков.
R24 - Количество осадков - Количество выпавших осадков за 24 часа, мм.
S - Снежный покров - Высота снежного покрова, см. При наведении курсора мыши на число - состояние снежного покрова и степень покрытия местности в баллах.